Regional Weather Roundup
Issued by NWS

Home | Current Version | Previous Version | Graphics & Text | Print | Product List | Glossary On
Versions: 1 2 3 4 5 6 7 8 9 10 11 12 13 14 15 16 17 18 19 20 21 22 23 24 25 26 27 28 29 30 31 32 33 34 35 36 37 38 39 40 41 42 43 44 45 46 47 48 49 50
000
ASUS45 KPSR 181600
RWRAZ

PRELIMINARY ARIZONA REGIONAL HOURLY WEATHER ROUNDUP
NATIONAL WEATHER SERVICE PHOENIX AZ
900 AM MST THU SEP 18 2014

NOTE: FAIR INDICATES FEW OR NO CLOUDS BELOW 12,000 FEET WITH NO
SIGNIFICANT WEATHER AND/OR OBSTRUCTIONS TO VISIBILITY.

AZZ001>003-036-181700-
NORTHWEST ARIZONA

CITY           SKY/WX    TMP DP  RH WIND       PRES   REMARKS
KINGMAN        PTSUNNY   79  61  53 CALM      29.94R
$$

AZZ004>008-015-016-018-181700-
NORTH CENTRAL ARIZONA

CITY           SKY/WX    TMP DP  RH WIND       PRES   REMARKS
GRAND CANYON   SUNNY     67  50  54 S5        30.14S
PRESCOTT       MOSUNNY   70  57  63 CALM      30.05S
FLAGSTAFF      SUNNY     64  54  69 NE7       30.17R
PAYSON         SUNNY     70  55  60 NW3       30.07R
PAGE           SUNNY     74  51  44 NW5       30.01R
$$

AZZ009>014-017-181700-
NORTHEAST ARIZONA

CITY           SKY/WX    TMP DP  RH WIND       PRES   REMARKS
WINSLOW        NOT AVBL
SAINT JOHNS    SUNNY     66  56  70 CALM      30.07R
SHOW LOW       FOG       54  54 100 CALM      30.14R VSB<1/4
$$

AZZ023-181700-
GREATER PHOENIX AREA

CITY           SKY/WX    TMP DP  RH WIND       PRES   REMARKS
PHOENIX        MOSUNNY   83  64  52 E5        29.79S
GLENDALE       MOSUNNY   82  68  61 CALM      29.81R
DEER VALLEY    SUNNY     83  61  47 S5        29.81S
SCOTTSDALE     SUNNY     85  63  47 S6        29.83R
MESA-FALCON    MOSUNNY   79  63  57 N5        29.81S
CHANDLER       MOSUNNY   82  68  61 E12G17    29.81R
$$

AZZ027-028-181700-
SOUTHWEST MARICOPA COUNTY AND PINAL COUNTY

CITY           SKY/WX    TMP DP  RH WIND       PRES   REMARKS
CASA GRANDE    MOSUNNY   81  64  57 E8        29.82S
$$

AZZ503-504-507>509-181700-
SOUTHEAST ARIZONA

CITY           SKY/WX    TMP DP  RH WIND       PRES   REMARKS
TUCSON         CLOUDY    73  67  81 S5        29.91R
RYAN FIELD       N/A     73  70  88 SE5       29.89R
NOGALES        CLOUDY    67  66  97 W3        29.96R
SAFFORD        CLOUDY    68  64  87 MISG      29.92S
$$

AZZ020-021-025-026-031-181700-
SOUTHWEST ARIZONA

CITY           SKY/WX    TMP DP  RH WIND       PRES   REMARKS
YUMA           NOT AVBL
$$

CAZ031-033-041-043-047-048-061-181700-
SOUTHERN CALIFORNIA

CITY           SKY/WX    TMP DP  RH WIND       PRES   REMARKS
DOWNTOWN L.A.  SUNNY     73  61  65 CALM      29.87R
L.A. AIRPORT   MOSUNNY   69  62  78 SW6       29.88R
SAN DIEGO      PTSUNNY   75  66  73 NW3       29.89R
BURBANK        SUNNY     71  57  61 SE8       29.88R
ONTARIO        SUNNY     71  61  70 SW6       29.89R
RIVERSIDE      SUNNY     71  61  70 NW5       29.89R
PALM SPRINGS   MOSUNNY   90  57  32 CALM      29.77R
EL CENTRO NAS  MOSUNNY   93  52  24 SW9       29.71R
IMPERIAL       SUNNY     91  58  32 SW7       29.70S
BLYTHE         SUNNY     89  68  49 S10       29.74R
$$

NVZ020-UTZ003-181700-
SOUTHERN NEVADA-UTAH

CITY           SKY/WX    TMP DP  RH WIND       PRES   REMARKS
LAS VEGAS      NOT AVBL
SALT LAKE CITY MOSUNNY   80  44  27 SE15      29.92S
$$

NMZ009-TXZ055-181700-
NEW MEXICO-WEST TEXAS

CITY           SKY/WX    TMP DP  RH WIND       PRES   REMARKS
ALBUQUERQUE    MOSUNNY   65  52  62 NW5       30.10S
EL PASO        LGT RAIN  66  64  93 NW12      30.00R
$$


........................KEY........................
SKY/WX - SKY CONDITION/WEATHER
TMP    - TEMPERATURE IN FAHRENHEIT
DP     - DEW POINT IN FAHRENHEIT
RH     - RELATIVE HUMIDITY IN PERCENT
WIND   - DIRECTION AND SPEED IN MILES PER HOUR (MPH)
VRB    - VARIABLE WIND DIRECTION
PRES   - MEAN SEA LEVEL PRESSURE IN INCHES OF MERCURY
         F - FALLING PRESSURE   R - RISING PRESSURE
         S - STEADY PRESSURE
VSB    - VISIBILITY IN MILES
HX     - HEAT INDEX IN FAHRENHEIT
WCI    - WIND CHILL INDEX IN FAHRENHEIT
TC     - TEMPERATURE IN CELSIUS WHICH IS ALSO KNOWN AS
         TEMPERATURE IN CENTIGRADE
AFB    - AIR FORCE BASE
         LUKE AFB IS LUKE AIR FORCE BASE
         DAVIS-MONTHAN IS DAVIS-MONTHAN AIR FORCE BASE
NAS    - NAVAL AIR STATION
         EL CENTRO NAS IS EL CENTRO NAVAL AIR STATION
N/A    - NOT AVAILABLE


USA.gov is the U.S. government's official web portal to all federal, state and local government web resources and services.